Weather Roundup
Issued by NWS

Home | Current Version | Previous Version | Graphics & Text | Print | Product List | Glossary Off
Versions: 1 2 3 4 5 6 7 8 9 10 11 12 13 14 15 16 17 18 19 20 21 22 23 24 25 26 27 28 29 30 31 32 33 34 35 36 37 38 39 40 41 42 43 44 45 46 47 48 49 50

000
NZUS93 KARX 030559
HRRWXR

CURRENT HOURLY OBSERVATIONS ACROSS
MUCH OF THE UPPER MISSISSIPPI VALLEY
NATIONAL WEATHER SERVICE LA CROSSE WI
100 AM CDT SUN MAY 03 2015


...SOUTHEAST MINNESOTA...


CITY           SKY/WX    TMP DP  RH WIND       PRES   REMARKS
ROCHESTER      CLEAR     57  49  74 S14       29.86F
ROCHESTER/MAYO FAIR      60  50  70 S10       29.85S
WINONA         CLEAR     61  50  67 CALM      29.86S
AUSTIN         CLEAR     57  50  77 S9        29.85S
ALBERT LEA     CLEAR     59  50  72 S9        29.83S
DODGE CENTER   CLEAR     57  50  77 S12       29.85R
PRESTON        CLEAR     55  49  80 S9        29.87S
OWATONNA       CLEAR     61  50  67 S13G18    29.82F
FARIBAULT      CLEAR     61  52  72 S9        29.81S
$$

...ELSEWHERE IN MINNESOTA...


CITY           SKY/WX    TMP DP  RH WIND       PRES   REMARKS
MINNEAPOLIS    CLEAR     66  51  58 S12G17    29.79R
INTNL FALLS    CLOUDY    57  38  48 CALM      29.62S
DULUTH         MOCLDY    52  42  69 SE9       29.70F
RED WING       CLEAR     64  48  55 CALM      29.82R
REDWOOD FALLS  CLEAR     62  53  72 S13       29.74R
MANKATO        CLEAR     59  46  63 S10       29.79F
WORTHINGTON    CLEAR     59  48  67 S16       29.74F
FAIRMONT       CLEAR     57  46  67 S13       29.77F
$$

...SOUTHWEST WISCONSIN...


CITY           SKY/WX    TMP DP  RH WIND       PRES   REMARKS
LA CROSSE      CLEAR     64  51  62 S10       29.87R
PRAIRIE DU CHI CLOUDY    63  49  61 S3        29.90S
BOSCOBEL       PTCLDY    60  50  69 SW5       29.91S
LONE ROCK      NOT AVBL
PLATTEVILLE    PTCLDY    57  50  78 S7        29.94S
FORT MC COY    CLEAR     61  47  60 CALM      29.89S
VIROQUA        FAIR      58  49  72 S10       29.90S
WIS DELLS      NOT AVBL
$$

...ELSEWHERE IN WISCONSIN...


CITY           SKY/WX    TMP DP  RH WIND       PRES   REMARKS
MILWAUKEE      PTCLDY    59  39  47 SW7       29.94S
MADISON        MOCLDY    63  47  55 SW5       29.92S
GREEN BAY      CLEAR     60  45  57 S6        29.88F
EAU CLAIRE     CLEAR     64  49  57 SW12      29.82R
BLACK RVR FLS  FAIR      58  48  69 S3        29.86S
MEDFORD        PTCLDY    61  48  63 S9        29.85F
WAUSAU         CLEAR     62  46  55 SW10      29.85S
WIS RAPIDS     CLEAR     60  46  59 SW7       29.90R
MARSHFIELD     CLEAR     61  48  62 SW8       29.87S
RICE LAKE      PTCLDY    64  48  55 S9        29.82R
$$

...NORTHEAST IOWA...


CITY           SKY/WX    TMP DP  RH WIND       PRES   REMARKS
DECORAH        MOCLDY    59  52  77 S12       29.88S
MASON CITY     PTCLDY    56  50  80 SE9       29.85F
CHARLES CITY   CLOUDY    59  54  82 S12       29.87S
OELWEIN        CLOUDY    59  54  82 SE10      29.90S
$$

...ELSEWHERE IN IOWA...


CITY           SKY/WX    TMP DP  RH WIND       PRES   REMARKS
DES MOINES     CLOUDY    60  50  69 S12       29.84F
IOWA CITY      CLOUDY    57  52  83 SE6       29.94R
FORT DODGE     MOCLDY    59  52  77 S10G17    29.81F
$$

...NORTHERN ILLINOIS...


CITY           SKY/WX    TMP DP  RH WIND       PRES   REMARKS
CHICAGO-OHARE  MOCLDY    61  39  44 SW6       29.97R
CHICAGO-MIDWAY MOCLDY    63  40  42 S8        29.98R
MOLINE         MOCLDY    62  46  55 S6        29.95S
ROCKFORD       CLOUDY    60  42  51 S5        29.98S
PEORIA         PTCLDY    61  46  57 CALM      29.98S
$$

NOTE: "FAIR" INDICATES FEW OR NO CLOUDS BELOW 12,000 FEET WITH NO
SIGNIFICANT WEATHER AND/OR OBSTRUCTIONS TO VISIBILITY. WIND
SPEEDS ARE IN MILES-PER-HOUR.



USA.gov is the U.S. government's official web portal to all federal, state and local government web resources and services.